When you browse on this site, cookies collect data to enhance your experience and personalize the content and advertising you see.
Visit our Privacy Policy to learn more. By continuing to use the site, you agree to this use of cookies and data.
  • In United Kingdom
  • List of Countries
  • For 7 days
  • Water Temperature
  • Weather Map
  • Weather Widgets
  • user-avatar
    Login

    Hourly Weather Lincoln

    Today, 12 November, Tuesday

    Time Temperature Precipitation Wind Pressure Humidity
    00:00 +3°C° 0 mm 6 mps 742 mmHg 83%
    01:00 +2°C° 0 mm 6 mps 742 mmHg 82%
    02:00 +2°C° 0 mm 6 mps 741 mmHg 81%
    03:00 +2°C° 0 mm 6 mps 741 mmHg 81%
    04:00 +2°C° 0 mm 6 mps 741 mmHg 80%
    05:00 +2°C° 0 mm 6 mps 740 mmHg 80%
    06:00 +1°C° 0 mm 8 mps 740 mmHg 84%
    07:00 +1°C° 0.6 mm 8 mps 739 mmHg 84%
    08:00 +2°C° 0.6 mm 9 mps 739 mmHg 84%
    09:00 +2°C° 0.6 mm 9 mps 738 mmHg 84%
    10:00 +4°C° 0.2 mm 8 mps 738 mmHg 81%
    11:00 +5°C° 0.2 mm 7 mps 738 mmHg 78%
    12:00 +7°C° 0.2 mm 5 mps 738 mmHg 76%
    13:00 +5°C° 0.3 mm 6 mps 738 mmHg 78%
    14:00 +5°C° 0.3 mm 6 mps 738 mmHg 81%
    15:00 +5°C° 0.3 mm 6 mps 738 mmHg 84%
    16:00 +5°C° 0 mm 6 mps 739 mmHg 83%
    17:00 +4°C° 0 mm 6 mps 739 mmHg 83%
    18:00 +4°C° 0 mm 6 mps 740 mmHg 82%
    19:00 +4°C° 0 mm 6 mps 741 mmHg 82%
    20:00 +4°C° 0 mm 6 mps 741 mmHg 82%
    21:00 +4°C° 0 mm 6 mps 742 mmHg 82%
    22:00 +4°C° 0 mm 6 mps 742 mmHg 83%
    23:00 +3°C° 0 mm 5 mps 743 mmHg 85%

    Tomorrow, 13 November, Wednesday

    Time Temperature Precipitation Wind Pressure Humidity
    00:00 +3°C° 0 mm 5 mps 743 mmHg 86%
    01:00 +2°C° 0 mm 5 mps 743 mmHg 87%
    02:00 +3°C° 0 mm 4 mps 744 mmHg 87%
    03:00 +3°C° 0 mm 3 mps 744 mmHg 88%
    04:00 +2°C° 0 mm 3 mps 744 mmHg 88%
    05:00 +2°C° 0 mm 3 mps 744 mmHg 88%
    06:00 +3°C° 0 mm 2 mps 744 mmHg 88%
    07:00 +3°C° 0 mm 2 mps 744 mmHg 89%
    08:00 +3°C° 0 mm 2 mps 744 mmHg 89%
    09:00 +4°C° 0 mm 2 mps 744 mmHg 90%
    10:00 +4°C° 0 mm 2 mps 743 mmHg 87%
    11:00 +4°C° 0 mm 3 mps 743 mmHg 85%
    12:00 +5°C° 0 mm 3 mps 743 mmHg 83%
    13:00 +5°C° 0 mm 3 mps 742 mmHg 83%
    14:00 +6°C° 0 mm 2 mps 741 mmHg 83%
    15:00 +6°C° 0 mm 2 mps 741 mmHg 82%
    16:00 +5°C° 0 mm 2 mps 741 mmHg 85%
    17:00 +4°C° 0 mm 2 mps 740 mmHg 88%
    18:00 +4°C° 0 mm 2 mps 740 mmHg 90%
    19:00 +3°C° 0 mm 2 mps 740 mmHg 91%
    20:00 +3°C° 0 mm 2 mps 740 mmHg 92%
    21:00 +2°C° 0 mm 3 mps 739 mmHg 92%
    22:00 +2°C° 0 mm 3 mps 740 mmHg 92%
    23:00 +2°C° 0 mm 3 mps 740 mmHg 92%

    Day after tomorrow, 14 November, Thursday

    Time Temperature Precipitation Wind Pressure Humidity
    00:00 +2°C° 0 mm 3 mps 740 mmHg 92%
    01:00 +2°C° 0 mm 3 mps 740 mmHg 91%
    02:00 +1°C° 0 mm 4 mps 740 mmHg 91%
    03:00 +1°C° 0 mm 4 mps 740 mmHg 91%
    04:00 +2°C° 0.1 mm 5 mps 740 mmHg 90%
    05:00 +2°C° 0.1 mm 5 mps 741 mmHg 89%
    06:00 +3°C° 0.1 mm 6 mps 741 mmHg 88%
    07:00 +3°C° 0.7 mm 6 mps 741 mmHg 87%
    08:00 +3°C° 0.7 mm 6 mps 742 mmHg 86%
    09:00 +4°C° 0.7 mm 7 mps 742 mmHg 85%
    10:00 +4°C° 0.4 mm 7 mps 742 mmHg 86%
    11:00 +4°C° 0.4 mm 7 mps 743 mmHg 86%
    12:00 +4°C° 0.4 mm 7 mps 743 mmHg 86%
    13:00 +4°C° 0.6 mm 6 mps 743 mmHg 86%
    14:00 +5°C° 0.6 mm 5 mps 743 mmHg 87%
    15:00 +5°C° 0.6 mm 5 mps 744 mmHg 87%
    16:00 +5°C° 0.5 mm 4 mps 744 mmHg 88%
    17:00 +5°C° 0.5 mm 4 mps 745 mmHg 89%
    18:00 +4°C° 0.5 mm 4 mps 745 mmHg 90%
    19:00 +4°C° 0.2 mm 4 mps 746 mmHg 90%
    20:00 +4°C° 0.2 mm 4 mps 747 mmHg 89%
    21:00 +4°C° 0.2 mm 3 mps 747 mmHg 89%
    22:00 +4°C° 0.1 mm 3 mps 748 mmHg 90%
    23:00 +4°C° 0.1 mm 3 mps 748 mmHg 90%

    15 November, Friday

    Time Temperature Precipitation Wind Pressure Humidity
    00:00 +3°C° 0.1 mm 3 mps 748 mmHg 91%
    01:00 +3°C° 0 mm 3 mps 749 mmHg 91%
    02:00 +3°C° 0 mm 3 mps 749 mmHg 91%
    03:00 +3°C° 0 mm 3 mps 750 mmHg 91%
    04:00 +3°C° 0.1 mm 3 mps 750 mmHg 91%
    05:00 +4°C° 0.1 mm 3 mps 750 mmHg 90%
    06:00 +4°C° 0.1 mm 4 mps 751 mmHg 90%
    07:00 +4°C° 0.1 mm 4 mps 751 mmHg 89%
    08:00 +4°C° 0.1 mm 4 mps 752 mmHg 89%
    09:00 +4°C° 0.1 mm 4 mps 752 mmHg 89%
    10:00 +5°C° 0.1 mm 4 mps 752 mmHg 85%
    11:00 +6°C° 0.1 mm 5 mps 752 mmHg 81%
    12:00 +7°C° 0.1 mm 6 mps 751 mmHg 78%
    13:00 +7°C° 0.2 mm 6 mps 751 mmHg 78%
    14:00 +7°C° 0.2 mm 6 mps 750 mmHg 79%
    15:00 +7°C° 0.2 mm 6 mps 750 mmHg 80%
    16:00 +5°C° 0.1 mm 6 mps 750 mmHg 80%
    17:00 +5°C° 0.1 mm 6 mps 750 mmHg 81%
    18:00 +5°C° 0.1 mm 7 mps 750 mmHg 82%
    19:00 +5°C° 0.1 mm 7 mps 749 mmHg 82%
    20:00 +5°C° 0.1 mm 8 mps 749 mmHg 81%
    21:00 +5°C° 0.1 mm 8 mps 749 mmHg 81%
    22:00 +5°C° 0.4 mm 9 mps 748 mmHg 83%
    23:00 +5°C° 0.4 mm 9 mps 748 mmHg 85%

    16 November, Saturday

    Time Temperature Precipitation Wind Pressure Humidity
    00:00 +5°C° 0.4 mm 9 mps 748 mmHg 87%
    01:00 +5°C° 0.9 mm 8 mps 748 mmHg 89%
    02:00 +5°C° 0.9 mm 7 mps 747 mmHg 90%
    03:00 +6°C° 0.9 mm 5 mps 747 mmHg 92%
    04:00 +6°C° 0.4 mm 4 mps 747 mmHg 91%
    05:00 +5°C° 0.4 mm 3 mps 747 mmHg 90%
    06:00 +7°C° 0.4 mm 1 mps 747 mmHg 89%
    07:00 +7°C° 0.1 mm 1 mps 747 mmHg 88%
    08:00 +7°C° 0.1 mm 1 mps 748 mmHg 86%
    09:00 +6°C° 0.1 mm 0 mps 748 mmHg 85%
    10:00 +7°C° 0 mm 0 mps 748 mmHg 81%
    11:00 +7°C° 0 mm 0 mps 748 mmHg 78%
    12:00 +7°C° 0 mm 0 mps 747 mmHg 74%
    13:00 +7°C° 0 mm 0 mps 747 mmHg 76%
    14:00 +7°C° 0 mm 0 mps 747 mmHg 78%
    15:00 +8°C° 0 mm 1 mps 747 mmHg 80%
    16:00 +8°C° 0.2 mm 1 mps 747 mmHg 82%
    17:00 +7°C° 0.2 mm 1 mps 747 mmHg 84%
    18:00 +7°C° 0.2 mm 1 mps 747 mmHg 87%
    19:00 +7°C° 0.2 mm 1 mps 748 mmHg 87%
    20:00 +7°C° 0.2 mm 1 mps 748 mmHg 88%
    21:00 +7°C° 0.2 mm 1 mps 748 mmHg 89%
    22:00 +7°C° 0.1 mm 1 mps 748 mmHg 89%
    23:00 +6°C° 0.1 mm 1 mps 748 mmHg 88%

    17 November, Sunday

    Time Temperature Precipitation Wind Pressure Humidity
    00:00 +6°C° 0.1 mm 1 mps 748 mmHg 87%
    01:00 +6°C° 0.2 mm 1 mps 748 mmHg 87%
    02:00 +6°C° 0.2 mm 1 mps 748 mmHg 87%
    03:00 +6°C° 0.2 mm 1 mps 748 mmHg 87%
    04:00 +5°C° 0.3 mm 0 mps 749 mmHg 87%
    05:00 +5°C° 0.3 mm 0 mps 749 mmHg 88%
    06:00 +5°C° 0.3 mm 0 mps 749 mmHg 89%
    07:00 +5°C° 0.3 mm 0 mps 749 mmHg 90%
    08:00 +5°C° 0.3 mm 0 mps 750 mmHg 90%
    09:00 +6°C° 0.3 mm 1 mps 750 mmHg 91%
    10:00 +7°C° 0 mm 1 mps 750 mmHg 89%
    11:00 +7°C° 0 mm 1 mps 750 mmHg 87%
    12:00 +8°C° 0 mm 1 mps 750 mmHg 85%
    13:00 +8°C° 0 mm 1 mps 750 mmHg 86%
    14:00 +8°C° 0 mm 1 mps 750 mmHg 87%
    15:00 +8°C° 0 mm 1 mps 750 mmHg 87%
    16:00 +6°C° 0 mm 2 mps 751 mmHg 89%
    17:00 +5°C° 0 mm 2 mps 751 mmHg 90%
    18:00 +5°C° 0 mm 2 mps 751 mmHg 92%
    19:00 +4°C° 0 mm 2 mps 751 mmHg 93%
    20:00 +4°C° 0 mm 2 mps 751 mmHg 93%
    21:00 +4°C° 0 mm 2 mps 751 mmHg 94%
    22:00 +4°C° 0 mm 2 mps 751 mmHg 94%
    23:00 +4°C° 0 mm 1 mps 751 mmHg 95%
    Show more